This demonstration page uses our WeatherBlox Daily Observations layout. Learn more.

Left ArrowRight Arrow

Hourly Observations for April 5, 2017

Temp ( °F °C ) Dew Point ( °F °C ) Humidity (%) Winds ( mph kmh ) Pressure ( in mb ) Visibility ( mi km ) Precip ( " mm )
12:53 am 00:53 Clear 29 -1.7 21 -6.1 72 72 WNW 6 9 30.06 1018 10 16 0.00 0.00
1:53 am 01:53 Clear 29 -1.7 21 -6.1 72 72 SSW 5 7 30.05 1018 10 16 0.00 0.00
2:53 am 02:53 Clear 27 -2.8 21 -6.1 78 78 WSW 3 6 30.04 1017 10 16 0.00 0.00
3:53 am 03:53 Clear 29 -1.7 25 -3.9 85 85 SW 12 19 30.04 1017 10 16 0.00 0.00
4:53 am 04:53 Clear 29 -1.7 24 -4.4 82 82 WSW 8 13 30.03 1017 10 16 0.00 0.00
5:53 am 05:53 Clear 25 -3.9 22 -5.6 88 88 Calm 30.04 1017 10 16 0.00 0.00
6:53 am 06:53 Sunny 27 -2.8 22 -5.6 81 81 S 6 9 30.04 1017 10 16 0.00 0.00
7:53 am 07:53 Sunny 28 -2.2 24 -4.4 85 85 Calm 30.05 1018 10 16 0.00 0.00
8:53 am 08:53 Sunny 35 1.7 26 -3.3 70 70 ENE 5 7 30.06 1018 10 16 0.00 0.00
9:53 am 09:53 Sunny 42 5.6 27 -2.8 55 55 ENE 5 7 30.04 1017 10 16 0.00 0.00
10:53 am 10:53 Sunny 49 9.4 25 -3.9 39 39 VRB 3 6 30.03 1017 10 16 0.00 0.00
11:53 am 11:53 Sunny 54 12.2 21 -6.1 28 28 WSW 8 13 30.01 1016 10 16 0.00 0.00
12:53 pm 12:53 Sunny N/A N/A N/A WSW 7 11 N/A 10 16 0.00 0.00
1:53 pm 13:53 Sunny 59 15 22 -5.6 24 24 SSW 8 13 29.98 1015 N/A 0.00 0.00
2:53 pm 14:53 Sunny 59 15 22 -5.6 24 24 undefined N/A 29.98 1015 10 16 0.00 0.00
3:53 pm 15:53 Sunny 59 15 22 -5.6 24 24 S 7 11 29.98 1015 10 16 0.00 0.00
4:53 pm 16:53 Sunny 60 15.6 25 -3.9 26 26 WSW 8 13 29.97 1015 10 16 0.00 0.00
5:53 pm 17:53 Sunny 59 15 28 -2.2 31 31 WSW 5 7 29.98 1015 10 16 0.00 0.00
6:53 pm 18:53 Sunny 56 13.3 31 -0.6 39 39 SE 7 11 29.98 1015 10 16 0.00 0.00
7:53 pm 19:53 Sunny 54 12.2 33 0.6 45 45 ESE 5 7 29.98 1015 10 16 0.00 0.00
8:53 pm 20:53 Mostly Clear 51 10.6 32 0 48 48 ESE 5 7 29.97 1015 10 16 0.00 0.00
9:53 pm 21:53 Partly Cloudy 49 9.4 31 -0.6 50 50 Calm 29.97 1015 10 16 0.00 0.00
10:53 pm 22:53 Clear 49 9.4 32 0 52 52 Calm 29.96 1015 10 16 0.00 0.00
11:53 pm 23:53 Clear 43 6.1 31 -0.6 63 63 ENE 3 6 29.96 1015 10 16 0.00 0.00

Powered by AerisWeather